Tracking 17147 objects as of 4-July-2015
HD Live streaming from Space Station

N-1 R/B

Track N-1 R/B now!
10-day predictions
N-1 R/B is classified as:


NORAD ID: 8710
Int'l Code: 1976-019B
Perigee: 999.1 km
Apogee: 1,015.7 km
Inclination: 69.7 °
Period: 105.1 minutes
Semi major axis: 7378 km
RCS: 1.547 m2 (large)
Launch date: February 29, 1976
Source: Japan (JPN)

Note: This is a ROCKET BODY
Your satellite tracking list
Your tracking list is empty





NASA's NSSDC Master Catalog

Two Line Element Set (TLE):
1 08710U 76019B   15184.73050039 -.00000020  00000-0  35919-4 0  9999
2 08710 069.6760 244.8554 0011249 035.3839 103.2355 13.69820142967313

Source of the keplerian elements: AFSPC

N2YO: 310